Regional Weather Roundup
Issued by NWS Cleveland, OH

Home | Current Version | Previous Version | Graphics & Text | Print | Product List | Glossary On
Versions: 1 2 3 4 5 6 7 8 9 10 11 12 13 14 15 16 17 18 19 20 21 22 23 24 25 26 27 28 29 30 31 32 33 34 35 36 37 38 39 40 41 42 43 44 45 46 47 48 49 50
573
ASUS41 KCLE 060712
RWRCLE
OHIO REGIONAL WEATHER ROUNDUP
NATIONAL WEATHER SERVICE WILMINGTON, OH
200 AM EST SAT FEB 06 2016

NOTE: "FAIR" INDICATES FEW OR NO CLOUDS BELOW 12,000 FEET WITH NO
SIGNIFICANT WEATHER AND/OR OBSTRUCTIONS TO VISIBILITY.

OHZ001>008-015>018-024>027-034-035-043-044-060800-
   NORTHWEST OHIO

CITY           SKY/WX    TMP DP  RH WIND       PRES   REMARKS
DEFIANCE       FAIR      29  23  78 CALM      30.30S
FINDLAY        FAIR      28  23  81 W8        30.28F WCI  20
TOLEDO EXPRESS FAIR      26  23  88 W3        30.28F
TOLEDO EXEC    FAIR      28  23  81 SW7       30.29S WCI  21
LIMA           FAIR      26  22  84 SW6       30.29F WCI  19
$$

OHZ009>014-019>023-028>033-038-089-060800-
   NORTHEAST OHIO

CITY           SKY/WX    TMP DP  RH WIND       PRES   REMARKS
CLE-HOPKINS    FAIR      32  19  58 SW8       30.29S WCI  25
CLE-LAKEFRONT  MOCLDY    34  20  56 SW13      30.26S WCI  25
CUY CO. ARPT   NOT AVBL
LORAIN-ELYRIA  CLOUDY    31  23  72 W8        30.28R WCI  23
ASHTABULA      CLOUDY    31  21  66 S9        30.25F WCI  23
AKRON-CANTON   MOCLDY    31  18  58 S12       30.26F WCI  22
WOOSTER        FAIR      31  20  63 SW7       30.27S WCI  24
MANSFIELD      CLOUDY    30  22  72 W7        30.26S WCI  23
YOUNGSTOWN     CLOUDY    30  19  63 S8        30.26F WCI  22
$$

OHZ042-051>053-060>062-070>072-077>081-060800-
  SOUTHWEST OHIO

CITY           SKY/WX    TMP DP  RH WIND       PRES   REMARKS
CINC-COVINGTON FAIR      28  24  85 NW3       30.32F
CINC-LUNKEN    FAIR      27  24  89 CALM      30.35F
HAMILTON       FAIR      24  22  91 CALM      30.34F
DAYTON         MOCLDY    25  23  92 W7        30.32S WCI  17
WRIGHT-PAT AFB FAIR      26  24  93 W2        30.31S
DAYTON GENERAL FAIR      28  22  78 CALM      30.30F
WILMINGTON     FAIR      29  19  66 W6        30.30F WCI  23
$$

OHZ036-037-039>041-045>050-054>059-063>069-073>076-082>088-060800-
  CENTRAL AND SOUTHEAST OHIO

CITY           SKY/WX    TMP DP  RH WIND       PRES   REMARKS
COLUMBUS       MOCLDY    31  18  58 S3        30.30F
OSU AIRPORT    MOCLDY    29  23  78 SW3       30.29F
BOLTON FIELD   FAIR      28  22  79 CALM      30.31S
RICKENBACK AFB FAIR      30  21  70 S6        30.31S WCI  24
NEWARK         FAIR      30  18  60 SW6       30.30S WCI  24
MARION         CLOUDY    30  22  72 W6        30.29F WCI  24
LANCASTER      MOCLDY    33  18  53 SW5       30.31S WCI  29
ZANESVILLE     CLOUDY    34  18  52 S8        30.31S WCI  27
NEW PHILLY     CLOUDY    33  18  53 S5        30.30F WCI  29
$$




USA.gov is the U.S. government's official web portal to all federal, state and local government web resources and services.